www.pogodaiklimat.ru

Погода и климат >> Архив погоды >> Россия >> Магаданская область >> Ягодное


ПОГОДА в Ягодной

  • Прогноз погоды в Ягодной
  • Монитор погоды в Ягодной

АРХИВ ПОГОДЫ в Ягодной

Время (UTC), дата Ветер
(напр.,м/с)
 
Видим.   Явления Облачность Т
(С)
Тd
(С)
f
(%)
Тe
(С)
Тes
(С)
Комфортность P
(гПа)
Po
(гПа)
Тmin
(С)
Tmax
(С)
R
(мм)
R24
(мм)
S
(см)
09 15.04 ЮЗ 1
{8}
50 км 4/0
[Ci fib]
-2.8 -13.1 45 -4 -4 1014.6 950.7 -0.8
12 15.04 В 1 50 км 5/0
[Ci fib]
-7.2 -12.5 66 -9 -9 1015.7 950.7
15 15.04 штиль 0 50 км 8/0
[Ci fib]
-10.2 -13.4 77 -11 -11 1016.5 950.7
18 15.04 штиль 0 50 км 6/0
[Ci fib]
-12.7 -15.0 83 -13 -13 1018.5 952.0
21 15.04 штиль 0
{5}
50 км 3/0
[Ci fib]
-11.2 -14.9 74 -11 -9 1017.8 951.5 -14.6 50
00 16.04 В 2 50 км 6/0
[Ac trans Ci fib]
-2.7 -10.9 53 -6 -3 1017.4 953.3
03 16.04 ЮЗ 3 50 км 5/3 1000 м
[Cu hum Ci fib]
-1.2 -12.8 41 -5 -2 1017.0 953.3
06 16.04 ЮЗ 3 50 км 5 баллов -0.5 -12.1 41 -4 -3 1016.8 953.3
09 16.04 ЮЗ 1
{8}
50 км 8/0
[Ci fib]
-3.3 -12.2 50 -5 -5 1017.5 953.3 -0.1
12 16.04 штиль 0 50 км 3/0
[Ci fib]
-7.7 -13.1 65 -8 -8 1020.1 954.7
15 16.04 З 1 50 км 4/0
[Ac trans Ci fib]
-12.8 -15.8 78 -15 -15 1021.4 954.7
18 16.04 СЗ 1 50 км 10/0
[Ac und]
-11.9 -15.3 76 -14 -14 1021.2 954.7
21 16.04 З 1
{4}
50 км 9/0
[Ac trans Ci fib]
-10.4 -14.3 73 -13 -12 1020.8 954.7 -13.1 49
00 17.04 ЮВ 1 50 км 10/0
[As trans]
-5.0 -11.8 59 -7 -7 1017.9 953.3
03 17.04 В 2 50 км 10/0
[As trans]
-1.2 -10.3 50 -4 -4 1017.0 953.3
06 17.04 В 1 50 км 6/0
[Ac trans Ci fib]
+1.2 -8.9 47 0 +2 1015.0 952.0
09 17.04 В 2
{4}
50 км 8/3 1000 м
[Sc Ac trans]
+0.9 -5.8 61 -2 -2 1015.1 952.0 +1.8
12 17.04 В 2 50 км 9 баллов -0.4 -5.4 69 -4 -4 1014.0 950.7
15 17.04 В 1 20 км слаб. ливневой снег 10/5 1000 м
[Cb cap Ac trans]
-1.6 -8.6 59 -3 -3 1012.8 949.3 -2.6 0.2
18 17.04 В 2 50 км 7 баллов -1.8 -5.6 75 -6 -6 1011.5 948.0
21 17.04 В 1
{4}
20 км слаб. ливневой снег 10/5 1000 м
[Cb cap Ac trans]
-2.0 -3.6 89 -4 -4 1011.5 948.0 -2.7 0.2 48
00 18.04 Ю 2 50 км {ливн. осадки} 9/5 1000 м
[Cb cap Ac trans Ci fib]
+0.7 -3.9 71 -3 -2 1010.9 948.0
03 18.04 З 3 50 км 8/5 1000 м
[Cu med, cong Ci fib]
+2.3 -6.8 51 -1 +1 1010.5 948.0
06 18.04 З 4 50 км 6/3 1000 м
[Cb cap Ac lent Ci fib]
+2.1 -8.0 47 -2 -1 1011.9 949.3
09 18.04 ЮЗ 3
{8}
50 км 6/4 1000 м
[Cb cap Ci fib]
0.0 -8.4 53 -4 -4 1015.3 952.0 +2.9 0.0
12 18.04 З 4 50 км 10/4 1000 м
[Sc As trans]
-1.0 -8.9 55 -6 -6 1016.9 953.3
15 18.04 штиль 0 50 км 10/5 1000 м
[Sc As trans]
-3.4 -9.6 62 -4 -4 1019.0 954.7
18 18.04 С 1 50 км 10/3 1000 м
[Sc Ac As]
-6.2 -9.8 76 -8 -8 1020.0 954.8
21 18.04 Ю 1 50 км 10/3 1000 м
[Sc Ac trans]
-4.0 -9.2 67 -6 -5 1020.6 955.9 -7.0 47
00 19.04 В 2 50 км 10/0
[As trans]
-0.4 -8.8 53 -3 -3 1021.1 957.3
03 19.04 ЮВ 1 20 км слаб. ливневой снег 10/6 1000 м
[Cb cap Ac trans]
+0.4 -8.8 50 -1 -1 1020.9 957.3
06 19.04 В 1 20 км слаб. ливневой снег 10/8 1000 м
[Cb cap Ac trans]
-2.1 -4.0 87 -4 -4 1021.4 957.3
09 19.04 В 1 20 км слаб. ливневой снег 10/10 960 м
[Cb cap]
-2.7 -3.5 94 -5 -5 1021.6 957.3 +0.6 2
12 19.04 штиль 0 50 км {ливн. осадки} 10/5 1000 м
[Cb cap Ac trans]
-3.8 -4.3 96 -5 -5 1021.9 957.3
15 19.04 В 1 20 км слаб. ливневой снег 10/10 960 м
[Cb cap]
-4.4 -4.7 98 -7 -7 1020.6 955.8
18 19.04 штиль 0 50 км {ливн. осадки} ?/? -5.5 -5.9 97 -7 -7 1019.5 954.5
21 19.04 З 2 20 км слаб. ливневой снег 10/10 960 м
[Cb cap]
-4.1 -4.7 96 -8 -8 1019.3 954.7 -5.7 0.5 48
00 20.04 З 6 50 км {ливн. осадки} 10/4 1000 м
[Cb cap Ac trans Ci fib]
+1.3 -4.5 65 -5 -5 1019.2 956.0
03 20.04 З 2 50 км 10/5 1000 м
[Cb cap Ac trans Ci fib]
+3.1 -5.8 52 +1 +1 1020.2 957.3
06 20.04 З 3 50 км 10/6 1000 м
[Cb cap Ac trans Ci fib]
+2.3 -5.1 58 -1 -1 1020.4 957.3
09 20.04 В 2 50 км 8/4 1000 м
[Cb cap Ac trans Ci fib]
+0.2 -2.8 80 -3 -3 1020.9 957.3 +3.2 0.0
12 20.04 штиль 0 50 км 6/3 1000 м
[Cb cap Ci fib]
-2.2 -3.6 90 -3 -3 1023.0 958.7
15 20.04 СВ 1 50 км 6/4 1000 м
[Cb cap Ci fib]
-4.4 -4.9 96 -7 -7 1022.0 957.3
18 20.04 СЗ 1 50 км 8/3 1000 м
[Sc Ac trans Ci fib]
-7.4 -7.9 96 -10 -10 1024.3 958.7
21 20.04 штиль 0 50 км 8/0
[Ci fib]
-3.6 -6.2 82 -5 -2 1021.8 957.2 -7.5 48
00 21.04 В 2 50 км 9/0
[Ci fib]
+0.7 -4.9 66 -2 -2 1020.8 957.3
03 21.04 ЮВ 2 50 км 9/0
[Ac trans Ci fib]
+2.7 -4.7 58 0 +1 1018.9 956.0
06 21.04 Ю 2 50 км 8/1 1000 м
[Sc Ci fib]
+3.5 -5.9 50 +1 +2 1018.7 956.0
09 21.04 В 1 50 км 6/1 1000 м
[Sc Ci fib]
+1.3 -5.6 60 0 0 1019.3 956.0 +3.6
12 21.04 ЮВ 1 50 км 4/0
[Ac trans Ci fib]
-2.6 -6.4 75 -5 -5 1020.2 956.0
15 21.04 СЗ 1 50 км 7 баллов -4.9 -7.0 85 -7 -7 1020.8 956.0
18 21.04 штиль 0 50 км 9/0
[Ci fib]
-6.2 -7.9 88 -7 -7 1019.7 954.7
21 21.04 СЗ 1 50 км 9/3 1000 м
[Sc Ac trans]
-3.3 -7.0 76 -5 -4 1018.0 953.6 -6.6 45
00 22.04 В 2 50 км 9 баллов +2.0 -5.4 58 -1 0 1016.2 953.3
03 22.04 Ю 2 50 км 10 баллов +3.0 -7.8 45 +1 +1 1014.6 952.0
06 22.04 З 3 50 км 10 баллов +1.8 -7.8 49 -2 -2 1014.9 952.0

 

Местоположение метеостанции Ягодное (Магаданская область, Россия): широта 62.51 долгота 149.60 высота над уровнем моря 518 м.

В архиве по умолчанию представлена погода в Ягодной за последнюю неделю. Архивные данные за месяц целиком и за предыдущие месяцы, начиная с января 2011 года, Вы можете получить, выбрав интересующий диапазон дат из раскрывающегося списка и нажав кнопку "Ввод!".


*Определитесь, кто Вы:
робот инопланетянин человек

Внимание! Время в таблицах - всемирное. Для получения местного времени необходимо прибавить поправку, которая равна 11 ч.

Смотрите также архив погоды в соседних городах и на ближайших метеорологических станциях:

Погода на Озере Джека Лондона (Магаданская область, Россия) (48 км)
Погода в Совхозе Эльген (Магаданская область, Россия) (60 км)
Погода в Усть-Бохапче (Магаданская область, Россия) (69 км)
Погода в Сусумане (Магаданская область, Россия) (82 км)
Погода в Колымской (Магаданская область, Россия) (127 км)
Погода в Среднекане (Магаданская область, Россия) (139 км)
Погода в Сеймчане (Магаданская область, Россия) (150 км)
Погода в Усть-Омчуге (Магаданская область, Россия) (155 км)
Погода в Талой (Магаданская область, Россия) (209 км)
Погода в Мадауне (Магаданская область, Россия) (220 км)

Пояснения к столбцам:

Ветер - указаны скорость ветра в м/с - средняя за 10 мин, порывы в срок и между сроками (в фигурных скобках) и направление, откуда дует ветер: С - северный, СВ - северо-восточный, В - восточный, ЮВ - юго-восточный, Ю - южный, ЮЗ - юго-западный, З - западный, СЗ - северо-западный.
Видимость - горизонтальная дальность видимости в метрах или километрах. При видимости от 1 до 10 км при отсутствии осадков обычно наблюдается дымка, при ухудшении видимости до 1 км и менее - туман. В сухую погоду видимость может ухудшаться дымом, пылью или мглою.
Явления - указаны атмосферные явления, наблюдавшиеся в срок или в последний час перед сроком; фигурными скобками обозначены явления, наблюдавшиеся между сроками (за 1-3 часа до срока); квадратными скобками обозначены град или гололедные отложения с указанием их диаметра в мм.
Облачность - указаны через наклонную черту общая и нижняя облачность в баллах и высота нижней границы облаков в метрах; квадратными скобками обозначены формы облаков: Ci - перистые, Cs - перисто-слоистые, Cc - перисто-кучевые, Ac - высококучевые, As - высокослоистые, Sc - слоисто-кучевые, Ns - слоисто-дождевые, Cu - кучевые, Cb - кучево-дождевые. Подробнее классификацию облаков см. в Атласе облаков (PDF).
T - Температура воздуха - температура, измеренная на высоте 2 м над землей.
Td - Температура точки росы - температура, при понижении до которой содержащийся в воздухе водяной пар достигнет насыщения.
f - Относительная влажность воздуха - влажноcть воздуха, измеренная на высоте 2 м над землей.
Te - Эффективная температура - температура, которую ощущает одетый по сезону человек в тени. Характеристика душности погоды. При расчете учитывается влияние влажности воздуха и скорости ветра на теплоощущения человека.
Tes - Эффективная температура на солнце - температура, которую ощущает человек, с поправкой на солнечный нагрев. Характеристика знойности погоды. Зависит от высоты солнца над горизонтом, облачности и скорости ветра. Ночью, в пасмурную погоду, а также при ветре 12 м/с и более поправка равна нулю.
P - Атмосферное давление - приведенное к уровню моря атмосферное давление.
Po - Атмосферное давление - измеренное на уровне метеостанции атмосферное давление.
Tmin - Минимальная температура - минимум температуры воздуха на высоте 2 м над землей.
Tmax - Максимальная температура - максимум температуры воздуха на высоте 2 м над землей.
R - Количество осадков - Количество выпавших осадков за период времени, мм. При наведении курсора мыши на число - период времени, за который выпало указанное количество осадков.
R24 - Количество осадков - Количество выпавших осадков за 24 часа, мм.
S - Снежный покров - Высота снежного покрова, см. При наведении курсора мыши на число - состояние снежного покрова и степень покрытия местности в баллах.